Location: Newark
(49.8969°N, 3.3422°E)
Time: 21:00:25
(UTC+00:00)

A-11 Canister half - Pass Details

Date: 20 January 2020
Orbit: 1517 x 1683 km, 47.2° (Epoch: 26 February)

Event Time Altitude Azimuth Distance (km) Brightness Sun altitude
Exits shadow 04:52:48 44° 262° (W) 2,007 9.1 -25.6°
Maximum altitude 04:56:09 71° 193° (SSW) 1,597 8.9 -25.1°
Drops below altitude 10° 05:05:26 10° 112° (ESE) 3,723 12.0 -23.6°
Sets 05:08:31 0° 111° (ESE) 4,724 12.8 -23.1°
